Simultaneous Nadir Overpasses (SNOs) Predictions

Prediction of SNOs between NOAA-19 and NPP Satellite Orbit:

Table of predicted SNOs for the next 14.0 days since TLE Epoch: 7/3/2021
Index Date (NOAA-19) Time (NOAA-19) Lat,Lon (NOAA-19) SZA (NOAA-19 ) Date (NPP) Time (NPP) Lat,Lon (NPP) SZA (NPP ) Distance(km) Time Diff (sec)
1 07/05/2021 00:45:07 -78.08, -37.72 123.26 07/05/2021 00:46:21 -78.15, -37.17 123.29 14.94 74
2 07/05/2021 01:36:03 78.17, 130.03 56.77 07/05/2021 01:37:07 78.17, 130.05 56.75 0.91 64
3 07/05/2021 02:27:05 -78.17, -62.70 123.23 07/05/2021 02:27:52 -78.20, -62.76 123.22 3.29 47
4 07/05/2021 03:18:03 78.18, 104.60 56.78 07/05/2021 03:18:37 78.17, 104.66 56.75 1.47 34
5 07/05/2021 04:09:05 -78.18, -88.13 123.22 07/05/2021 04:09:22 -78.20, -88.15 123.21 1.91 17
6 07/05/2021 05:00:03 78.19, 79.17 56.79 07/05/2021 05:00:07 78.18, 79.28 56.76 2.80 4
7 07/05/2021 05:51:05 -78.19,-113.56 123.21 07/05/2021 05:50:52 -78.20,-113.53 123.20 0.90 13
8 07/05/2021 06:42:03 78.20, 53.74 56.80 07/05/2021 06:41:38 78.22, 53.68 56.83 2.54 25
9 07/05/2021 07:33:05 -78.20,-138.98 123.20 07/05/2021 07:32:22 -78.20,-138.92 123.19 1.51 43
10 07/05/2021 08:24:03 78.21, 28.31 56.81 07/05/2021 08:23:08 78.22, 28.29 56.84 1.15 55
11 07/05/2021 09:15:05 -78.22,-164.41 123.19 07/05/2021 09:13:52 -78.20,-164.30 123.18 2.84 73



Historial Predications of SNOs between NOAA-19 and NPP
